GFSSGP_850_spd_057.txt.gz
Wind_Speed
7 4 2 8 2 2 6 8 14 16 10 10 12 10 6 6 5 4 24 35 37 34 33 31 28 27 26 25 25 23 20 18 17 15 14 12 10 10 9 8 8 7 7 7 7 7 7 7 7
5 4 5 5 3 2 6 17 19 19 22 4 12 10 9 3 20 32 35 23 34 35 35 31 28 27 25 24 23 22 20 18 16 15 13 11 10 9 8 7 6 5 5 5 5 5 6 6 5
3 2 3 4 4 9 6 7 11 19 36 11 5 7 1 11 28 38 28 29 35 34 33 31 28 25 24 23 21 20 19 17 16 14 13 12 11 10 8 7 6 5 4 3 3 2 3 4 4
3 2 6 0 10 13 22 17 18 19 16 13 9 4 10 20 33 29 34 31 36 34 32 30 28 24 23 21 20 19 18 17 16 15 14 13 12 10 8 7 7 6 5 4 2 1 0 3 3
3 6 3 4 11 15 18 23 23 15 15 11 8 3 16 24 26 30 34 31 37 35 33 31 27 24 22 20 19 19 18 18 16 15 15 14 12 11 9 9 8 8 7 6 4 4 3 2 2
3 5 2 5 13 17 18 25 16 14 21 10 8 7 8 26 28 37 31 32 36 37 34 31 28 25 23 21 20 19 19 18 18 17 16 15 14 14 13 12 12 11 10 10 8 8 7 6 5
9 3 7 8 15 18 18 30 10 10 11 14 11 1 16 29 28 33 32 33 36 35 35 32 29 26 23 22 20 19 19 19 18 18 18 18 17 17 17 16 15 15 15 14 12 12 11 9 9
8 5 15 15 15 19 22 23 26 14 16 24 19 6 5 24 26 33 34 34 35 35 34 32 30 28 26 24 22 20 19 20 20 19 20 20 20 21 20 20 19 18 19 17 16 15 15 12 12
17 5 12 19 18 17 23 15 28 25 19 24 20 8 10 18 31 31 28 31 28 26 33 33 31 29 26 25 23 21 21 21 21 22 23 23 24 25 24 24 23 22 22 21 20 19 18 17 16
9 7 17 14 15 17 21 19 24 18 14 18 19 3 3 21 23 30 32 35 36 29 26 31 30 29 27 26 25 23 22 22 22 24 23 25 26 27 26 27 26 26 26 25 23 23 22 22 19
13 17 14 19 25 31 28 27 28 20 10 21 18 19 9 13 22 22 29 29 41 33 28 31 29 27 27 27 26 25 25 24 24 26 25 27 28 29 29 30 30 29 29 29 28 27 27 26 23
16 22 25 27 31 33 25 32 26 25 23 29 31 26 27 19 22 27 26 33 42 38 35 31 28 26 22 23 22 21 21 19 19 19 22 27 29 31 30 31 31 30 29 28 28 29 30 29 26
18 17 26 30 30 32 36 30 26 31 33 35 30 27 27 25 20 21 21 13 12 23 36 38 31 21 15 20 20 19 19 19 19 21 20 22 23 24 23 25 27 27 28 27 23 23 26 30 27
15 20 22 27 28 31 24 27 28 35 34 36 35 28 26 25 23 11 11 11 3 18 22 38 28 21 18 23 19 18 18 20 22 23 21 22 23 25 23 23 22 24 26 25 21 20 20 21 22
21 11 15 17 20 15 17 19 28 35 30 29 35 39 35 27 28 28 28 22 19 15 24 24 23 29 39 31 23 19 19 22 24 23 21 23 26 28 27 27 23 22 24 25 23 21 18 18 19
7 8 7 1 10 20 14 26 22 25 32 33 27 37 43 33 34 31 29 34 34 27 20 14 11 21 26 30 23 21 21 25 29 29 27 27 28 30 30 32 29 23 22 26 28 21 20 19 21
6 8 12 16 13 12 11 25 24 31 27 25 34 34 35 44 35 37 31 31 33 25 23 31 29 27 23 27 23 20 20 23 27 28 27 32 35 34 34 35 30 25 23 27 27 27 23 22 22
8 8 9 12 5 7 13 20 17 25 31 31 31 31 34 39 44 37 41 34 30 31 26 28 30 29 28 27 20 23 22 24 25 26 27 27 31 32 33 34 30 26 25 26 29 28 29 26 20
11 12 12 14 11 13 12 18 20 19 23 22 34 35 33 35 43 44 37 39 38 37 35 32 29 29 30 28 30 33 32 30 29 29 32 32 32 32 33 33 28 26 27 27 26 26 28 27 27
12 13 12 10 10 14 13 19 19 18 18 25 27 32 38 40 36 38 34 37 38 41 38 37 35 34 32 29 26 30 31 33 34 35 32 32 28 30 32 32 28 26 26 29 26 27 26 26 25
14 14 13 14 11 14 9 16 22 21 20 28 32 31 33 43 43 40 39 43 33 42 44 40 38 37 36 31 27 28 34 38 36 33 25 28 28 28 32 30 26 24 26 26 27 26 27 26 26
10 13 17 16 12 9 4 16 12 17 22 15 24 30 34 33 25 45 43 48 46 36 38 41 34 29 31 31 29 29 32 37 35 30 26 29 31 30 30 27 24 23 21 21 24 23 26 24 24
12 12 16 16 14 13 12 11 15 9 18 18 16 29 36 38 33 28 43 42 35 25 28 29 28 27 26 27 31 32 30 33 32 24 27 29 30 30 27 26 23 23 19 20 21 22 19 24 22
13 12 9 7 3 11 14 11 20 14 19 20 20 31 36 39 35 33 39 43 35 34 33 30 30 31 32 33 35 33 32 32 30 24 25 30 31 28 25 23 20 25 17 18 22 19 14 18 23
8 8 4 4 2 5 10 11 16 19 20 19 18 28 38 39 44 42 37 31 35 35 33 33 32 33 32 35 36 36 38 30 26 28 29 31 32 28 22 20 19 22 19 21 16 18 16 18 18
5 4 4 5 10 15 13 9 14 10 18 24 23 32 33 36 44 38 28 42 39 39 42 39 35 33 32 33 38 42 38 32 29 31 33 35 31 27 23 20 19 21 20 22 19 16 16 16 17
11 5 10 10 15 8 11 18 16 20 5 15 25 36 40 42 41 33 11 21 28 33 32 30 33 35 36 36 35 38 36 33 32 32 30 33 24 23 24 19 23 22 20 21 19 16 16 16 15
3 7 7 4 6 5 4 11 5 13 16 18 21 29 41 50 33 8 5 5 11 14 16 17 21 29 36 34 32 33 34 33 29 33 31 28 22 16 19 23 24 21 22 18 15 14 15 13 11
4 3 2 5 6 3 5 3 2 9 11 16 17 38 37 41 33 2 2 6 9 12 16 20 20 21 30 28 28 28 28 26 29 28 26 24 20 17 21 24 22 22 21 18 15 14 12 10 7
4 5 4 2 6 3 3 7 3 6 10 14 18 32 35 38 23 19 11 8 11 14 21 30 20 25 26 25 25 23 22 26 30 26 27 23 21 20 21 24 22 20 18 15 14 13 10 11 9

GFSSGP_850_spd_060.txt.gz
Wind_Speed
7 3 2 2 3 4 4 8 4 14 8 5 24 10 8 15 8 5 17 39 38 35 36 34 32 31 30 29 28 27 25 23 22 21 19 17 15 14 13 11 10 9 8 8 7 7 7 7 7
4 4 1 2 4 0 6 6 16 8 18 37 41 18 5 3 10 14 36 35 35 37 37 36 35 32 30 29 27 25 24 22 21 19 18 15 14 12 11 9 9 8 7 6 5 5 6 6 6
2 5 0 3 4 6 6 4 4 10 32 30 11 16 12 12 15 34 41 39 40 38 38 38 37 34 31 29 27 25 23 22 20 18 16 15 13 12 10 9 8 7 6 5 4 3 3 3 5
1 2 1 2 10 7 6 13 15 16 27 28 29 3 6 20 29 38 38 39 42 40 40 40 38 35 30 28 25 23 21 20 19 17 15 14 12 11 10 10 8 7 6 5 4 3 2 1 1
3 2 0 4 9 7 8 14 21 10 17 27 32 4 19 28 27 35 36 42 42 41 41 40 38 34 29 27 25 23 21 19 18 17 16 14 13 12 11 11 10 10 8 7 7 6 5 3 3
2 3 1 6 10 9 6 19 18 8 22 25 22 13 12 28 31 36 37 41 43 42 41 39 36 33 29 27 25 23 21 19 18 18 16 15 15 14 13 12 12 12 11 10 10 10 9 8 7
4 3 6 5 9 12 8 14 12 8 12 11 19 4 3 28 32 35 38 42 44 41 41 38 36 33 29 27 25 23 21 20 19 19 17 16 15 15 15 15 15 15 15 13 14 13 12 12 11
5 3 4 6 10 13 10 11 16 19 15 13 18 6 4 29 30 43 43 46 44 42 40 38 36 34 31 28 26 23 21 20 20 19 18 18 18 18 18 18 19 19 18 18 17 17 16 15 14
7 2 8 7 11 9 21 7 29 26 21 26 13 5 5 20 29 38 41 42 42 41 39 38 36 35 33 30 27 25 23 21 21 21 21 21 22 22 21 21 22 22 22 21 21 20 20 19 17
7 5 8 6 10 9 18 23 26 23 30 24 21 11 6 15 33 34 34 39 41 41 40 39 37 35 33 32 29 27 24 23 23 22 23 23 22 23 24 24 24 24 24 25 24 24 24 23 21
5 11 6 10 12 16 21 28 27 19 18 25 12 19 15 9 14 34 33 36 40 41 38 38 37 35 34 32 31 28 26 23 24 24 24 23 24 26 26 27 27 27 26 29 28 28 28 27 25
8 14 11 15 22 22 19 33 25 25 30 37 29 24 15 11 11 12 30 38 38 38 38 39 39 37 35 33 31 29 27 25 25 24 24 25 26 26 29 29 28 28 27 31 29 30 29 28 27
8 10 19 22 25 24 26 26 26 36 37 35 38 26 22 15 15 15 25 39 42 37 39 41 42 39 35 33 32 30 28 26 23 22 22 24 26 26 27 25 25 26 24 28 26 26 25 25 25
7 9 15 15 20 20 17 22 25 42 36 31 36 33 26 25 21 14 3 11 32 38 42 41 41 40 33 31 29 24 23 22 23 22 23 22 24 24 22 21 21 22 19 23 21 20 19 18 18
13 7 8 6 5 5 15 18 21 28 29 29 31 37 33 26 28 31 19 10 16 23 33 41 37 34 32 30 22 18 19 19 23 22 23 23 24 25 23 22 23 21 19 20 20 18 18 18 16
5 1 1 3 6 5 6 23 19 27 29 32 30 32 38 34 27 31 32 23 21 21 21 18 31 35 30 29 30 25 25 22 24 25 26 25 24 27 27 25 27 24 21 21 21 19 20 19 18
3 4 4 5 6 6 7 17 6 18 19 26 33 34 33 37 32 31 33 30 23 27 28 38 30 34 30 33 29 28 26 25 26 28 31 28 26 28 30 28 28 28 25 25 23 21 22 20 18
6 6 4 3 3 2 9 15 6 16 18 17 20 25 30 38 44 38 38 37 34 26 30 35 38 36 27 24 30 30 28 27 29 31 32 29 28 30 30 30 30 31 28 28 24 24 23 23 20
7 7 6 4 5 4 8 16 13 8 13 15 23 26 30 32 35 43 30 33 38 39 31 40 49 48 41 46 41 38 33 34 35 34 30 29 30 31 29 30 32 31 29 28 23 23 26 24 20
7 5 7 4 9 11 9 20 18 11 7 18 23 28 30 33 36 35 38 43 38 43 40 34 45 44 47 46 41 41 36 36 35 34 31 28 30 31 30 32 32 29 28 27 24 24 26 24 22
5 4 6 7 11 5 6 19 12 12 12 19 21 25 29 31 35 38 38 38 45 41 39 29 33 42 47 46 42 41 38 37 35 35 32 31 31 30 28 26 25 27 26 25 24 26 24 24 23
2 6 9 11 8 3 4 13 14 14 11 8 16 24 30 36 38 39 43 39 37 41 36 39 28 41 46 44 42 41 39 37 31 31 33 33 32 28 28 26 24 24 24 24 24 24 24 21 23
4 3 4 5 8 2 5 6 9 14 19 18 15 25 32 36 40 44 44 42 37 37 47 41 38 34 48 43 39 34 33 31 27 26 30 32 27 28 28 28 24 23 24 22 20 20 21 18 21
2 4 6 5 1 5 6 7 21 9 13 13 14 27 26 27 30 36 42 38 38 36 40 42 39 31 43 38 35 35 35 30 30 27 28 28 25 27 29 27 22 22 21 19 18 17 18 18 19
5 4 4 4 2 5 1 6 13 12 15 18 8 17 26 30 30 30 32 36 43 38 39 37 35 33 38 37 37 35 36 36 32 29 24 26 24 27 31 26 22 21 19 18 19 18 18 17 17
4 6 4 4 4 11 17 8 8 8 13 5 8 14 25 35 36 36 35 34 39 39 38 41 38 38 40 38 39 39 36 36 36 30 25 25 25 27 28 24 21 18 23 19 18 16 18 15 15
2 3 6 3 8 5 8 13 11 3 6 11 12 14 23 33 38 39 34 35 41 39 36 41 42 42 39 34 34 34 34 37 37 32 27 25 25 26 26 22 20 19 24 21 19 16 15 14 15
4 3 2 1 3 5 4 8 8 7 10 9 11 12 23 32 36 35 30 29 23 27 34 40 41 41 36 31 30 33 33 30 32 33 29 26 26 27 25 23 18 24 23 20 19 17 15 15 16
4 2 2 1 2 3 5 6 6 10 9 8 13 22 27 31 27 31 31 26 21 13 22 34 35 33 30 25 27 33 32 27 29 32 28 27 24 25 22 22 22 26 22 18 18 15 14 14 13
10 5 4 3 5 3 5 9 9 6 6 9 14 25 28 24 19 23 27 33 16 9 14 15 19 23 22 26 28 27 25 27 29 29 27 24 25 24 21 23 26 23 21 19 17 15 14 14 13

GFSSGP_850_spd_063.txt.gz
Wind_Speed
6 3 4 1 2 4 3 7 2 7 8 3 31 11 11 20 9 6 13 39 37 39 37 34 33 33 32 31 30 29 28 27 25 23 21 20 18 16 14 13 11 10 9 8 7 7 7 7 7
4 2 3 2 3 0 5 5 4 5 11 27 29 19 7 7 15 6 30 40 39 41 40 37 35 35 33 31 30 28 27 26 24 22 19 17 15 14 13 11 10 9 7 6 6 6 6 5 5
2 4 2 4 3 6 5 3 2 13 22 25 10 27 12 6 17 15 35 41 43 42 40 39 37 36 34 32 30 28 27 24 22 21 19 17 15 13 11 10 9 8 6 5 4 4 4 4 4
3 3 1 3 11 4 4 6 6 12 22 12 17 11 8 15 14 26 45 45 45 43 42 40 38 37 36 33 30 28 25 24 21 20 18 16 14 13 11 9 8 7 6 5 4 3 3 3 3
3 2 1 3 11 3 3 6 9 9 9 21 30 8 6 6 19 30 47 47 46 45 43 40 39 38 36 33 30 27 25 22 21 20 18 16 14 13 12 11 10 8 8 7 5 5 5 4 2
3 2 2 6 16 3 3 10 10 4 16 24 15 14 4 6 11 38 43 46 44 45 43 41 39 38 37 33 30 27 24 22 20 19 17 16 14 14 12 12 12 11 10 9 8 8 7 7 6
5 3 5 5 12 5 3 3 4 5 10 10 28 6 7 8 17 42 44 47 45 43 42 42 41 39 37 34 29 26 23 22 20 18 17 16 15 14 14 14 14 13 12 12 11 11 11 11 10
5 4 3 5 13 6 5 6 8 5 8 23 17 7 15 13 21 35 42 48 46 45 42 42 41 40 38 35 31 27 24 22 20 18 18 17 16 16 16 16 17 16 15 15 15 14 14 14 13
4 2 8 8 8 2 16 4 2 8 13 22 13 22 29 9 20 30 39 46 46 43 41 42 41 40 38 35 33 30 26 23 21 20 19 20 19 19 18 19 19 19 18 18 18 18 18 18 17
5 5 9 5 8 11 22 10 20 11 20 16 27 26 29 10 13 32 41 46 46 45 44 43 42 40 38 36 34 32 29 27 24 22 22 21 20 20 21 22 22 21 21 20 21 21 21 22 20
5 6 3 2 5 7 18 15 19 12 16 9 20 29 30 16 10 20 30 41 47 45 44 42 40 38 37 36 34 34 31 29 26 24 23 22 22 22 24 25 24 23 22 22 24 24 25 24 23
4 4 3 3 13 14 11 23 18 23 33 22 21 26 23 22 18 6 18 30 39 42 42 42 41 38 37 35 35 34 32 30 27 26 24 24 24 24 26 26 26 24 22 22 24 25 26 26 26
3 4 10 12 15 18 22 20 20 37 35 21 21 20 23 23 21 19 16 24 32 40 43 45 41 41 39 38 37 36 34 31 28 26 26 24 27 27 26 25 25 24 22 19 20 23 23 24 23
3 4 10 6 9 10 11 14 17 38 23 25 20 23 21 23 21 18 16 13 32 39 42 46 45 43 45 43 41 38 36 32 29 28 27 26 28 28 25 24 22 20 18 16 15 17 18 19 19
5 4 5 5 8 8 11 13 18 29 31 27 26 23 23 23 21 21 20 21 13 24 38 40 43 49 46 45 41 40 37 32 30 26 25 26 27 28 24 23 20 18 16 15 15 16 17 17 17
4 4 3 5 2 6 13 18 4 8 12 19 19 20 15 19 23 22 24 16 17 16 27 35 43 48 44 44 42 38 33 30 27 23 23 23 24 26 26 25 23 18 19 17 17 17 17 17 17
6 1 2 6 4 4 6 3 5 14 16 18 23 25 29 30 20 14 19 22 20 18 21 25 29 40 45 42 40 34 29 29 29 24 25 23 25 25 28 28 25 20 22 21 20 19 17 17 16
3 3 4 5 6 4 11 8 6 11 8 13 19 24 30 32 33 27 23 17 22 28 24 26 31 32 36 43 39 36 35 33 30 27 29 26 25 25 29 29 26 24 24 26 23 22 18 18 15
3 3 4 5 6 7 11 17 9 9 8 11 17 22 25 29 31 29 30 20 19 21 29 29 29 34 37 39 40 34 33 26 27 35 34 32 27 25 29 30 27 26 28 28 25 23 19 18 17
2 3 1 4 4 5 9 22 15 5 6 9 16 19 23 29 29 32 30 27 22 22 23 32 34 31 43 43 39 38 36 37 43 44 37 35 29 27 30 29 30 27 27 28 28 24 21 19 19
1 3 2 3 5 4 6 15 8 2 5 16 15 16 26 32 36 38 38 35 29 26 23 26 34 37 43 46 45 46 46 46 47 44 39 35 31 29 30 32 31 27 25 23 25 24 22 19 19
3 2 2 6 6 5 4 13 8 5 8 5 16 23 27 28 33 33 35 34 33 32 27 29 27 37 41 42 55 57 55 53 48 47 40 36 28 27 32 29 24 24 19 21 23 23 21 20 21
4 3 3 2 4 4 2 5 13 15 17 9 9 21 16 18 23 28 31 35 36 37 34 29 26 32 36 35 39 48 51 53 51 45 39 29 27 29 30 29 24 21 19 21 21 22 22 21 21
3 3 5 4 2 2 8 7 13 1 3 6 7 19 16 19 21 25 30 32 37 38 38 34 31 30 37 37 36 43 48 52 52 41 34 28 29 29 27 26 23 19 20 20 21 21 19 18 19
6 5 4 4 2 5 3 3 12 15 15 6 5 16 20 21 24 27 29 33 38 38 38 38 36 30 32 41 41 41 48 49 45 40 35 32 30 28 27 25 21 20 21 20 21 18 19 16 17
5 6 4 4 3 10 9 7 7 5 6 6 13 17 23 28 31 32 32 31 34 37 41 41 40 33 30 37 40 38 42 46 41 39 35 31 29 24 23 21 19 20 19 20 20 21 19 19 18
2 3 5 4 4 2 5 9 9 16 7 8 11 17 26 32 38 40 39 34 32 32 37 41 42 34 31 33 36 33 39 42 40 35 32 32 28 23 20 19 21 20 19 18 21 19 19 18 17
6 4 1 2 3 4 5 7 10 10 14 7 10 17 27 34 39 43 42 33 28 31 29 35 41 34 34 38 40 40 42 39 34 31 33 31 29 23 20 21 23 21 17 23 19 18 16 17 15
2 1 2 2 4 3 4 5 5 10 10 9 12 23 27 34 33 38 38 27 28 29 17 18 30 34 36 40 44 42 38 34 30 32 32 28 28 23 21 24 24 22 19 23 21 20 18 16 13
4 6 6 4 5 3 4 19 9 8 8 10 17 24 26 25 34 39 39 30 28 25 18 15 12 21 35 37 46 43 38 35 32 26 26 23 26 23 23 25 25 21 21 24 21 20 18 14 14

GFSSGP_850_spd_069.txt.gz
Wind_Speed
10 2 5 1 3 1 3 2 2 4 2 3 8 6 7 13 8 3 1 13 25 28 29 29 31 31 29 25 24 24 23 21 19 21 22 22 20 19 17 16 15 14 13 12 11 10 9 8 7
10 1 3 4 3 5 4 2 6 3 7 13 11 6 8 8 20 23 23 8 29 31 30 31 32 33 31 28 27 27 26 24 24 25 23 21 19 18 16 15 13 12 11 10 9 8 7 6 5
5 2 1 2 3 9 2 4 7 5 14 4 5 7 5 5 9 8 11 14 33 35 31 31 33 34 32 31 30 29 28 27 26 24 22 20 18 17 15 13 12 10 9 8 7 6 5 4 3
2 1 3 4 10 2 3 2 8 10 8 4 8 11 7 14 22 13 16 15 37 37 33 32 33 35 34 33 32 31 29 28 26 23 21 19 17 16 13 12 10 9 8 6 6 5 3 2 1
4 1 3 4 6 2 5 7 9 11 10 8 11 11 9 20 21 12 17 24 40 39 36 35 35 36 36 35 34 32 29 28 26 23 20 18 16 14 12 11 9 8 7 7 6 5 3 2 2
3 3 5 9 14 4 4 7 4 6 8 9 12 13 4 23 31 12 15 35 41 40 37 36 35 35 36 36 35 32 30 28 25 22 19 17 15 13 11 11 10 9 8 7 7 6 6 5 5
5 4 12 11 12 7 3 4 2 3 11 4 11 7 8 29 33 15 16 37 42 40 39 39 38 37 37 36 35 33 31 28 25 22 19 16 16 14 12 12 11 10 9 9 8 7 7 7 6
5 4 11 10 14 12 4 4 1 3 3 7 10 5 11 27 30 17 13 33 40 43 40 40 40 39 39 38 36 34 31 29 26 23 20 18 17 16 14 13 13 12 11 10 10 9 9 9 9
8 7 12 18 16 9 3 2 1 5 11 7 3 9 16 21 23 21 9 26 34 42 42 41 41 41 40 40 38 35 33 30 28 25 22 20 21 20 17 16 15 14 13 13 13 12 12 11 12
10 10 17 6 9 11 9 8 10 7 14 15 11 12 17 17 17 15 8 18 29 38 43 43 43 42 41 40 39 36 35 32 31 28 26 24 25 23 20 17 17 17 16 15 15 15 15 14 15
7 12 8 7 13 14 17 11 7 10 17 10 15 23 24 18 15 14 11 7 23 34 40 44 45 43 42 41 40 38 36 35 33 30 28 27 25 25 23 21 20 19 17 17 16 18 18 16 15
7 6 13 16 14 6 8 8 8 14 24 17 17 22 15 18 16 13 10 9 10 22 36 42 45 43 42 42 40 39 38 36 34 32 30 28 27 28 26 23 20 20 18 18 17 19 19 17 16
7 3 5 8 10 11 13 18 18 19 21 25 15 15 20 16 14 11 10 10 10 11 21 37 40 42 43 43 41 41 40 38 34 33 31 30 29 29 26 24 21 20 19 18 17 18 18 17 16
2 3 7 8 11 8 10 20 13 12 7 18 24 20 12 7 10 12 10 2 15 14 13 22 37 43 44 45 44 44 43 38 39 36 33 31 30 30 27 25 22 21 20 19 16 17 17 17 17
2 6 8 12 14 12 13 17 22 5 7 18 14 10 9 5 4 3 5 5 11 22 18 16 20 37 43 46 47 46 43 42 42 38 35 34 31 30 27 25 23 21 22 20 18 17 18 17 16
1 2 4 3 2 6 13 14 2 12 1 9 9 7 7 6 4 3 2 4 6 13 22 15 18 21 34 42 45 47 49 47 41 42 37 36 32 31 27 24 19 23 24 23 22 19 19 18 16
1 3 3 2 5 4 3 5 3 9 11 12 11 7 7 8 6 5 4 5 5 4 8 28 26 21 22 31 41 44 49 46 43 43 40 38 35 29 26 20 16 25 27 27 25 21 21 19 16
1 2 2 5 2 7 7 8 12 14 11 13 14 15 8 5 5 7 8 9 10 9 7 5 25 31 24 22 32 41 46 47 48 47 43 41 36 30 22 20 13 26 30 32 29 27 20 18 16
3 4 5 5 2 9 11 13 13 18 16 15 16 17 13 9 7 10 15 15 15 15 13 11 10 11 27 22 23 27 33 38 44 45 44 41 36 23 7 16 19 17 29 38 32 27 24 18 16
5 5 6 7 5 8 14 19 17 14 15 18 17 13 12 11 14 18 15 16 16 16 17 18 15 13 13 17 20 24 28 30 30 36 39 41 34 29 20 32 29 48 40 36 30 29 25 19 17
6 8 4 5 7 9 12 13 3 4 9 7 3 7 8 14 12 14 16 16 17 17 19 21 22 18 17 16 20 24 25 29 31 31 34 41 34 33 29 33 33 37 38 33 25 26 24 19 18
7 5 3 4 6 8 6 9 12 9 2 4 2 6 7 13 13 12 13 16 19 18 18 20 23 24 22 20 21 24 28 30 30 30 28 35 38 43 42 45 37 39 37 27 22 24 22 20 20
2 2 2 5 11 10 13 7 3 3 6 5 6 3 9 10 8 12 16 18 19 19 19 20 22 25 26 25 23 25 29 32 33 33 32 33 41 44 45 40 37 38 30 23 24 24 23 23 23
3 2 7 1 3 6 3 5 4 4 5 7 11 8 13 6 8 13 18 21 24 23 23 22 23 24 26 29 29 28 29 31 36 39 39 35 40 41 42 34 31 31 25 24 25 24 26 24 23
2 4 4 3 4 3 5 8 11 7 7 11 13 16 16 12 14 16 20 24 26 26 27 25 25 25 24 28 33 32 32 30 34 41 43 41 41 45 42 32 31 29 23 24 25 27 27 23 23
3 3 4 5 4 5 5 9 2 5 8 14 11 8 12 14 15 17 18 18 21 27 30 29 28 26 28 28 31 36 34 33 33 39 44 44 46 47 43 34 33 26 22 25 27 26 23 22 21
3 6 2 6 8 7 6 8 10 10 4 3 1 7 15 19 18 15 15 19 21 23 27 32 27 24 29 31 32 34 37 35 35 39 40 40 40 39 30 34 32 22 24 26 25 25 22 21 20
8 7 3 3 4 6 6 13 9 10 9 3 10 12 17 23 22 15 14 16 20 23 29 29 25 24 28 27 31 33 37 38 37 38 39 38 38 34 28 37 28 25 26 25 24 24 21 20 21
6 8 5 3 4 4 6 5 3 5 9 9 8 15 24 26 18 16 18 19 19 22 25 32 27 25 25 23 27 33 36 39 39 38 44 44 42 32 31 35 29 27 28 25 25 23 20 22 23
8 10 13 7 6 5 6 9 10 13 7 9 20 28 21 18 20 19 21 21 21 22 24 29 35 29 28 28 29 30 35 39 42 39 43 44 36 30 30 30 29 28 28 26 26 23 22 23 23

GFSSGP_850_spd_072.txt.gz
Wind_Speed
10 8 2 1 6 6 12 5 2 6 7 2 4 8 8 12 9 3 3 9 9 21 21 23 23 26 27 24 24 24 23 21 19 18 19 19 19 19 18 16 16 14 13 11 10 9 9 8 7
7 5 4 3 7 10 11 3 10 3 4 7 7 9 11 11 9 15 17 11 11 22 23 24 26 27 29 27 26 25 23 22 19 19 20 20 19 18 17 16 14 13 12 11 9 8 7 7 7
4 2 5 4 11 13 11 4 7 5 5 3 5 5 5 2 10 13 12 6 16 25 27 26 26 28 31 29 28 27 26 23 21 22 22 20 19 17 16 14 13 12 10 9 7 6 5 5 5
2 3 5 9 14 13 9 4 3 6 6 2 5 7 4 3 20 20 20 12 20 25 28 27 27 29 31 31 30 28 26 24 24 24 22 20 18 16 14 12 11 10 8 7 5 4 2 2 1
4 6 9 10 14 4 9 12 11 11 11 8 6 6 3 11 21 17 12 14 22 27 29 30 30 31 32 33 32 31 28 26 25 23 22 19 17 15 13 11 10 8 7 6 4 3 2 2 3
11 8 11 13 15 9 7 8 11 10 10 8 8 9 1 15 24 20 9 12 20 27 28 33 32 32 33 33 32 32 31 29 26 24 22 19 17 14 13 11 10 9 8 6 5 5 5 5 6
15 11 17 18 16 11 10 8 15 10 10 7 5 10 5 18 22 19 6 8 20 25 25 33 35 34 34 33 33 33 32 30 28 25 22 19 17 14 13 11 10 9 8 7 6 7 7 7 8
17 12 22 19 17 20 13 12 12 13 5 6 5 3 12 18 19 16 8 8 19 23 23 25 36 37 36 35 34 33 33 31 29 26 23 20 18 15 14 13 12 11 10 9 9 8 8 9 10
15 14 19 24 21 16 11 12 9 13 13 12 8 9 11 17 16 14 10 6 17 21 23 24 27 33 36 34 35 34 33 32 30 27 25 22 20 18 18 16 15 12 12 12 11 11 10 12 13
16 16 27 22 20 18 16 19 12 8 14 16 14 8 13 18 16 14 11 4 17 21 23 24 25 27 28 27 30 36 35 33 31 30 27 25 23 20 19 19 17 16 14 15 15 14 14 15 12
18 23 21 24 19 21 21 23 22 16 14 18 15 15 19 18 15 13 10 7 12 20 22 23 25 26 27 27 26 28 29 29 31 32 30 27 22 19 20 16 18 18 16 16 17 18 17 13 12
16 19 21 25 20 19 18 21 24 21 21 8 16 19 22 19 17 13 8 6 3 13 23 23 24 26 30 26 27 25 27 25 25 29 32 29 27 22 18 14 13 15 13 14 15 13 14 14 15
16 19 13 17 22 25 22 23 20 21 17 11 23 18 18 20 18 14 9 6 5 2 10 22 25 30 34 37 27 29 29 27 25 26 31 30 27 23 21 18 16 13 11 11 11 13 14 14 15
4 14 16 18 19 21 20 23 21 25 15 10 23 18 20 16 12 11 8 3 9 8 6 8 19 27 32 36 39 36 36 27 31 25 27 32 28 25 20 20 17 14 13 12 12 11 14 16 17
12 13 15 18 21 22 22 22 25 22 14 23 25 21 16 14 12 7 5 4 9 14 14 14 13 15 28 36 40 40 37 39 33 30 32 31 30 29 24 19 16 13 14 14 15 17 20 18 17
11 11 15 14 11 19 15 19 3 3 15 20 22 24 25 15 11 7 2 4 6 5 18 31 12 8 11 27 33 37 39 42 38 41 36 35 37 32 28 24 16 13 12 9 13 16 23 19 16
10 13 8 7 4 4 11 14 20 4 8 6 6 14 16 14 10 6 4 5 4 5 4 10 25 27 11 6 17 28 35 38 40 41 38 34 43 35 30 26 15 10 12 11 13 19 25 24 18
6 9 7 11 7 9 13 13 12 13 12 12 15 17 15 14 10 6 6 6 8 8 8 7 6 24 40 26 16 18 26 31 36 36 40 49 44 42 33 25 18 13 7 4 15 29 31 28 19
8 9 11 8 6 10 13 16 16 19 19 19 18 18 19 14 11 6 9 10 8 8 12 10 14 8 28 40 30 29 22 19 27 30 41 47 46 39 35 27 20 18 11 16 33 30 36 29 27
10 13 12 8 8 9 15 19 20 20 20 24 23 22 21 17 11 7 6 8 9 11 9 12 12 11 14 31 48 43 38 32 26 26 37 42 43 43 37 31 28 25 20 23 32 29 25 27 24
12 12 12 11 13 16 19 20 21 7 12 11 13 14 10 9 6 2 5 7 8 9 11 10 11 11 11 13 30 44 44 52 37 31 29 32 35 39 32 33 33 26 25 26 31 35 36 25 20
14 6 8 10 12 12 8 10 12 10 12 9 13 11 9 5 4 3 3 6 9 10 12 13 12 13 11 14 15 19 23 33 43 31 24 27 29 27 32 38 38 33 26 30 29 31 31 31 25
13 1 9 12 15 18 19 11 14 4 9 9 6 3 6 3 4 2 4 8 8 10 14 14 15 15 16 14 17 19 21 26 28 27 25 26 27 26 31 40 44 44 33 38 36 35 31 33 24
1 9 12 17 13 15 19 14 10 9 7 10 11 4 4 3 4 3 7 10 11 11 11 13 17 17 17 18 17 19 24 27 26 23 24 23 22 27 28 38 46 46 39 34 38 35 33 31 29
11 12 10 10 11 11 6 6 14 4 5 3 6 5 4 6 8 8 10 12 13 13 14 14 15 19 21 22 23 23 24 27 29 28 24 26 24 25 29 34 43 43 40 39 36 36 33 29 29
11 9 10 17 12 10 12 7 2 5 4 5 3 3 3 3 5 9 11 12 12 13 15 16 18 19 20 23 25 26 28 28 27 28 29 27 27 29 28 35 37 33 33 37 36 32 29 26 27
11 11 8 12 16 14 16 14 7 13 9 8 5 5 8 8 12 16 15 14 13 12 12 16 20 20 20 21 22 24 27 31 32 34 34 33 34 31 36 35 31 33 32 37 31 30 27 25 23
13 12 8 10 11 18 14 13 8 12 7 7 5 6 9 15 19 19 19 17 15 15 16 17 17 20 23 21 22 23 23 25 30 34 38 38 37 37 37 36 29 30 31 32 29 26 24 22 21
8 13 12 14 13 11 12 6 10 2 3 5 5 11 18 20 19 19 19 19 19 19 19 19 20 20 21 24 24 24 25 26 26 31 35 39 38 37 39 37 30 29 30 32 29 25 22 22 20
13 18 15 12 15 11 13 16 6 6 6 4 12 18 16 18 16 18 20 20 21 20 21 22 23 24 23 23 23 26 25 27 29 30 35 38 36 36 34 30 29 30 32 33 28 27 21 21 23

GFSSGP_850_spd_075.txt.gz
Wind_Speed
10 11 8 11 8 8 16 18 1 2 5 6 6 6 9 16 12 4 4 4 3 15 17 19 18 21 24 25 23 21 20 18 17 17 16 15 15 15 14 13 12 11 10 9 9 8 7 7 6
9 8 10 12 9 13 13 16 6 9 8 3 10 12 12 12 6 6 10 9 2 16 18 22 20 22 26 26 26 24 22 20 18 17 17 16 15 15 13 12 11 10 9 8 7 7 7 6 5
10 8 12 9 12 16 14 11 3 5 1 8 4 2 7 6 7 12 10 9 4 15 19 23 23 24 27 28 28 27 25 23 20 19 18 17 16 14 13 11 10 9 8 7 6 5 5 5 5
7 11 10 10 18 16 25 15 4 6 7 6 6 7 4 3 11 15 14 10 8 16 19 24 25 25 29 29 29 28 26 24 21 20 19 17 16 14 12 11 9 7 6 5 4 2 2 2 2
10 13 11 15 17 19 15 20 20 11 13 8 9 13 4 3 13 17 12 8 13 18 19 23 27 27 30 31 30 29 27 24 22 21 20 18 16 14 12 10 8 6 4 3 2 2 2 2 2
17 16 15 16 20 15 6 10 25 21 15 13 6 16 8 2 17 17 11 5 14 20 21 23 29 28 29 30 30 30 28 26 24 23 21 18 16 14 12 10 8 6 5 5 4 3 5 6 6
18 14 19 22 21 16 12 9 14 22 20 11 8 4 6 8 16 15 12 3 13 20 23 22 32 31 30 30 30 30 29 27 26 25 23 20 17 15 12 10 9 8 7 6 6 6 7 8 9
24 15 26 23 18 22 13 16 12 13 28 8 4 8 4 11 14 13 11 2 10 20 22 18 31 34 33 32 30 30 29 28 27 26 24 21 18 16 14 13 11 10 8 8 8 8 9 10 12
25 18 21 25 24 19 18 14 15 16 21 31 11 10 9 9 14 12 10 3 10 19 21 19 24 26 31 32 33 32 30 29 29 27 26 22 20 18 18 16 14 12 11 10 10 11 12 13 14
24 17 27 25 22 22 24 22 16 14 17 27 30 17 8 9 15 13 10 8 10 18 21 20 21 23 25 24 27 33 32 31 30 28 26 24 20 14 13 14 15 14 13 13 13 13 15 16 15
25 24 24 24 28 30 27 28 16 18 14 19 27 32 14 14 15 13 13 6 7 17 20 21 20 23 23 24 23 27 27 29 30 29 26 24 17 15 13 12 16 16 16 16 14 14 15 13 12
23 29 27 27 32 30 22 24 24 27 23 20 18 36 29 21 17 17 15 7 7 8 20 19 19 21 23 22 23 21 24 23 24 26 27 22 23 17 16 12 10 12 10 11 10 9 12 14 14
21 21 24 27 24 29 28 25 26 30 24 17 17 24 40 29 21 19 15 9 7 6 9 20 21 21 21 29 23 24 23 24 22 21 23 23 18 19 15 14 12 11 9 11 10 11 13 15 14
19 15 21 27 25 24 25 26 27 34 29 29 22 26 37 36 22 16 13 11 6 7 8 12 18 22 26 32 23 22 22 22 23 21 20 26 21 19 16 15 14 13 12 11 12 14 13 12 12
15 17 18 20 22 22 23 25 28 32 30 29 25 25 27 26 20 13 10 8 4 7 16 17 14 17 21 23 33 26 22 23 20 22 23 23 25 22 20 17 16 14 14 12 11 15 14 13 13
16 18 18 20 22 25 21 26 25 32 31 31 22 26 22 27 20 11 8 6 3 2 8 20 14 7 5 18 23 25 26 21 22 20 20 25 28 23 26 22 20 16 16 12 8 10 10 10 10
17 15 18 19 5 8 18 25 20 28 14 16 19 23 24 30 27 16 11 9 7 7 6 13 27 35 15 13 15 24 24 28 25 23 23 31 31 29 29 27 23 18 18 15 12 9 9 14 17
12 15 12 11 8 13 17 20 19 17 15 18 19 19 21 23 30 18 16 7 6 8 7 7 16 34 36 26 22 15 15 26 26 26 27 30 28 33 36 28 24 23 23 19 16 17 11 16 20
13 16 16 16 9 10 13 19 20 21 22 19 21 21 21 22 19 17 15 10 7 3 6 7 10 13 34 33 31 27 26 19 15 17 18 25 30 29 36 39 33 29 28 27 24 21 21 27 26
14 17 17 17 14 13 16 20 20 20 22 25 24 25 23 24 20 20 12 10 8 7 9 11 11 14 16 23 35 32 24 28 26 28 16 16 29 34 39 49 43 40 33 34 32 25 25 22 23
16 16 16 17 15 15 16 25 25 23 33 31 32 29 27 26 25 24 18 13 10 6 12 13 20 19 16 19 19 25 34 38 32 29 30 38 26 28 36 45 41 42 37 40 34 30 26 17 16
16 14 15 10 13 14 16 17 18 18 13 14 15 16 18 9 13 16 16 13 10 5 5 10 13 16 18 23 24 19 24 30 33 38 33 29 28 32 35 37 43 43 43 46 37 28 24 22 20
16 17 10 15 16 18 21 14 18 20 17 10 9 14 16 16 15 11 12 7 6 4 5 6 8 12 14 17 21 24 18 19 24 30 34 45 31 36 34 40 42 42 49 50 37 24 21 15 24
13 13 15 18 16 17 22 18 18 16 15 13 10 9 9 9 12 12 10 8 7 6 6 6 8 6 11 14 16 21 25 27 24 20 19 28 46 39 43 57 48 51 50 45 37 29 22 23 34
13 15 13 16 15 17 18 7 12 6 4 2 15 13 10 9 12 15 12 10 9 9 9 7 7 6 8 9 13 15 20 23 25 26 26 24 24 31 39 43 40 43 49 48 37 32 31 35 30
17 16 12 18 16 18 4 8 8 8 13 10 7 11 8 11 11 7 9 10 11 11 10 10 9 9 10 8 11 13 16 18 20 21 22 24 28 33 31 33 34 38 39 46 48 42 36 33 33
17 18 19 15 19 17 20 28 26 15 12 8 12 12 12 10 10 12 16 15 14 13 13 11 12 11 10 12 13 12 15 18 20 24 28 26 30 34 29 31 33 36 35 37 40 40 36 34 33
18 18 15 7 13 21 19 21 15 18 15 15 13 11 12 8 14 17 19 18 18 16 16 16 15 14 14 14 14 15 16 17 19 22 25 27 32 35 33 32 36 42 32 31 35 31 33 32 31
15 17 20 18 15 15 17 12 14 10 3 10 11 9 8 16 14 17 18 17 18 18 18 17 17 17 18 18 17 18 18 19 20 22 25 26 28 33 38 41 34 36 32 33 38 38 33 31 29
16 22 18 11 11 14 16 18 7 0 7 12 8 9 17 17 15 17 17 16 17 17 18 16 17 18 19 20 21 21 22 22 23 24 24 28 30 32 33 33 35 37 35 37 38 35 29 29 24